STARLINK-2448

operational
NORAD ID: 48111 Int'l Des: 2021-027 Owner: SPXS Country: US Constellation: starlink
LEOCIRCULARSTARLINK_TYPE

Über STARLINK-2448

Beschreibung wird geladen...

Live-Position

3D-Globus wird geladen...

Nächste Überflüge

Höhenverlauf

Altitude vs Time

uPlot chart will show altitude changes over time

Zweizeiliger Elementsatz

1 48111U 21027V 25251.30669003 -.00008585 00000-0 -55833-3 0 9994
2 48111 53.0534 260.3384 0001090 95.6707 264.4406 15.06387670245074
Epoch: 8. Sept. 2025 • Age: 27 hours

Aktueller Status

Höhe 555.2 km
Geschwindigkeit 7.58 km/s
Subsatellitenpunkt -25.26°S, 91.59°E
Startdatum 7. Apr. 2021
Alter 4.4 years
Typ internet

Technische Details

Klassifizierung Payload
Masse 260.00 kg
Trockenmasse 248.00 kg
Gesamtmasse 260.00 kg
Länge 0.20 m
Durchmesser 2.80 m
Spannweite 9.00 m
Form Box + pan
Hersteller SPXS
Bus-Typ Starlink
Phasenstatus In Orbit
Besitzer/Staat SPXS/US

Große Konstellationen

Loading constellations...